KF8ADQ-10 Weather Reports


time (UTC)temp
F
wind
direction
speed
knots
gust
knots
rain 1hr
in
rain 24hr
in
rain mn
in
humidity
%
barometer
mb
20260504020006 49 180 0.0 3.5 0.00 0.00 0.00 67 100.7
20260504013007 50 113 0.0 3.5 0.00 0.00 0.00 59 100.7
20260504010006 51 180 0.0 6.1 0.00 0.00 0.00 57 100.7
20260504003006 54 180 0.0 6.1 0.00 0.00 0.00 53 100.7
20260504000006 57 225 0.0 7.8 0.00 0.00 0.00 47 100.7
20260503233010 57 45 0.0 7.8 0.00 0.00 0.00 47 100.7
20260503230016 57 203 0.0 6.1 0.00 0.00 0.00 46 100.7
20260503223006 58 180 0.0 7.0 0.00 0.00 0.00 45 100.7
20260503220006 58 203 0.0 7.0 0.00 0.00 0.00 45 100.7
20260503213006 59 225 0.0 7.0 0.00 0.00 0.00 43 100.8
20260503210006 59 180 0.0 7.0 0.00 0.00 0.00 43 100.7
20260503203006 63 225 0.0 9.6 0.00 0.00 0.00 40 100.8
20260503200006 61 225 0.0 9.6 0.00 0.00 0.00 42 100.8
20260503193006 63 180 0.0 7.8 0.00 0.00 0.00 39 100.8
20260503190006 62 203 0.0 7.8 0.00 0.00 0.00 42 100.9
20260503183006 60 225 0.0 8.7 0.00 0.00 0.00 42 100.9
20260503180006 59 203 0.0 8.7 0.00 0.00 0.00 45 100.9
20260503173007 59 248 0.0 7.8 0.00 0.00 0.00 43 101.0
20260503053007 35 158 0.0 1.7 0.00 0.00 0.00 90 101.1
20260503050009 37 180 0.0 0.0 0.00 0.00 0.00 90 101.1
20260503043006 37 180 0.0 0.0 0.00 0.00 0.00 91 101.1
20260503040006 37 180 0.0 0.0 0.00 0.00 0.00 93 101.1
20260503033007 37 180 0.0 0.0 0.00 0.00 0.00 93 101.1
20260503030006 37 180 0.0 0.0 0.00 0.00 0.00 93 101.1
20260503023007 37 180 0.0 0.0 0.00 0.00 0.00 91 101.2